EW6327 Weather Reports


Display with metric or nautical units.
time (UTC)temp
F
wind
direction
speed
MPH
gust
MPH
rain 1hr
in
rain 24hr
in
rain mn
in
humidity
%
barometer
mb
20260507040517 59 9 0.0 0.0 0.00 0.07 0.00 89 1004.5
20260507040014 59 230 0.0 0.0 0.00 0.07 0.00 88 1004.5
20260507035513 59 335 0.0 0.0 0.01 0.07 0.07 88 1004.8
20260507035013 59 243 0.0 0.0 0.01 0.07 0.07 88 1004.8
20260507034512 59 344 0.0 0.0 0.01 0.07 0.07 87 1004.7
20260507034013 59 248 0.0 0.0 0.01 0.07 0.07 87 1004.8
20260507033514 59 326 0.0 0.0 0.01 0.07 0.07 88 1004.6
20260507033012 59 355 0.0 0.0 0.01 0.07 0.07 88 1004.5
20260507032511 59 242 0.0 0.0 0.01 0.07 0.07 88 1004.5
20260507032011 59 286 0.0 0.0 0.01 0.07 0.07 88 1004.5
20260507031512 59 286 0.0 0.0 0.01 0.07 0.07 88 1004.4
20260507031011 59 290 0.0 0.0 0.01 0.07 0.07 88 1004.3
20260507030511 59 271 0.0 0.0 0.01 0.07 0.07 88 1004.2
20260507030013 59 302 0.0 0.0 0.01 0.07 0.07 88 1004.2
20260507025512 59 221 0.0 0.0 0.00 0.06 0.06 88 1004.2
20260507025011 59 254 0.0 0.0 0.00 0.06 0.06 88 1004.3
20260507024512 59 255 0.0 0.0 0.00 0.06 0.06 87 1004.1
20260507024013 59 241 0.0 0.0 0.00 0.06 0.06 87 1004.0
20260507023510 59 303 0.0 0.0 0.00 0.06 0.06 87 1004.2
20260507023010 59 269 0.0 0.0 0.00 0.06 0.06 87 1004.2
20260507022510 59 271 0.0 0.0 0.00 0.06 0.06 87 1004.3
20260507022011 59 248 0.0 0.0 0.00 0.06 0.06 87 1004.1
20260507021510 59 246 0.0 0.0 0.00 0.06 0.06 87 1004.1
20260507021009 58 238 0.0 0.0 0.00 0.06 0.06 87 1004.1
20260507020512 58 278 0.0 1.0 0.00 0.06 0.06 87 1004.2
20260507020009 58 246 0.0 1.0 0.00 0.06 0.06 87 1004.3
20260507015508 58 294 0.0 0.0 0.00 0.06 0.06 87 1004.3
20260507015008 58 336 0.0 0.0 0.00 0.06 0.06 87 1004.3
20260507014508 58 249 0.0 0.0 0.00 0.06 0.06 87 1004.1
20260507014011 58 347 0.0 0.0 0.00 0.06 0.06 87 1004.1
20260507013508 58 277 0.0 0.0 0.00 0.06 0.06 87 1004.1
20260507013017 58 269 0.0 0.0 0.00 0.06 0.06 87 1004.2
20260507012507 58 236 0.0 0.0 0.00 0.06 0.06 87 1004.4
20260507012009 58 259 0.0 0.0 0.00 0.06 0.06 87 1004.4
20260507011511 58 340 0.0 0.0 0.00 0.06 0.06 87 1004.5
20260507011006 58 268 0.0 0.0 0.00 0.06 0.06 88 1004.6
20260507010506 58 238 0.0 0.0 0.00 0.06 0.06 88 1004.6
20260507010010 58 250 0.0 0.0 0.00 0.06 0.06 88 1004.4
20260507005506 58 260 0.0 0.0 0.00 0.06 0.06 88 1004.5
20260507005005 58 236 0.0 0.0 0.00 0.06 0.06 88 1004.6
20260507004508 58 360 0.0 0.0 0.00 0.06 0.06 88 1004.6
20260507004006 58 252 0.0 0.0 0.00 0.06 0.06 88 1004.5
20260507003506 58 202 0.0 0.0 0.00 0.06 0.06 88 1004.6
20260507003006 58 252 0.0 0.0 0.01 0.06 0.06 88 1004.5
20260507002508 58 265 0.0 0.0 0.01 0.06 0.06 88 1004.4
20260507002006 58 194 0.0 0.0 0.01 0.06 0.06 88 1004.4
20260507001509 58 251 0.0 0.0 0.01 0.06 0.06 88 1004.3
20260507001004 58 274 0.0 0.0 0.01 0.06 0.06 88 1004.3
20260507000505 58 254 0.0 0.0 0.02 0.06 0.06 89 1004.2
20260507000004 58 238 0.0 0.0 0.02 0.06 0.06 89 1004.2
20260506235504 58 291 0.0 0.0 0.02 0.06 0.06 89 1004.1
20260506235003 58 277 0.0 0.0 0.02 0.06 0.06 89 1004.1
20260506234502 59 254 0.0 0.0 0.02 0.06 0.06 89 1004.1
20260506234004 59 29 0.0 0.0 0.02 0.06 0.06 89 1004.1
20260506233502 59 280 0.0 0.0 0.02 0.06 0.06 89 1004.0
20260506233002 59 213 0.0 0.0 0.01 0.05 0.05 89 1004.0
20260506232501 59 171 0.0 0.0 0.01 0.05 0.05 89 1004.0
20260506232002 59 269 0.0 0.0 0.01 0.05 0.05 89 1004.0
20260506231603 59 241 0.0 0.0 0.01 0.05 0.05 89 1003.9
20260506231100 59 271 0.0 0.0 0.01 0.05 0.05 89 1004.0
20260506230559 59 209 0.0 1.0 0.00 0.04 0.04 89 1004.1
20260506230059 59 279 0.0 0.0 0.00 0.04 0.04 89 1004.1
20260506225558 59 286 0.0 0.0 0.00 0.04 0.04 89 1004.0
20260506225059 59 207 0.0 0.0 0.00 0.04 0.04 89 1004.0
20260506224559 59 288 0.0 0.0 0.00 0.04 0.04 89 1004.1
20260506224056 59 254 0.0 0.0 0.00 0.04 0.04 89 1004.1
20260506223557 59 269 0.0 0.0 0.00 0.04 0.04 89 1004.1
20260506223056 59 278 0.0 0.0 0.01 0.04 0.04 89 1004.1
20260506222556 59 236 0.0 0.0 0.01 0.04 0.04 89 1004.2
20260506222056 59 162 0.0 0.0 0.01 0.04 0.04 89 1004.2
20260506221558 59 244 0.0 0.0 0.02 0.04 0.04 89 1004.3
20260506221054 60 263 0.0 0.0 0.02 0.04 0.04 89 1004.4
20260506220555 60 232 0.0 0.0 0.02 0.04 0.04 89 1004.4
20260506220053 60 280 0.0 0.0 0.02 0.04 0.04 89 1004.5
20260506215556 60 233 0.0 0.0 0.02 0.04 0.04 89 1004.4
20260506215052 60 255 0.0 0.0 0.02 0.04 0.04 89 1004.4
20260506214554 60 245 0.0 0.0 0.02 0.04 0.04 89 1004.5
20260506214050 60 247 0.0 0.0 0.02 0.04 0.04 90 1004.5
20260506213550 60 289 0.0 0.0 0.02 0.04 0.04 89 1004.7
20260506213109 60 269 0.0 0.0 0.01 0.03 0.03 89 1004.7
20260506212549 61 202 0.0 0.0 0.01 0.03 0.03 89 1004.8
20260506212050 61 262 0.0 0.0 0.01 0.03 0.03 89 1004.8
20260506211549 61 311 0.0 0.0 0.00 0.02 0.02 89 1004.8
20260506211049 61 236 0.0 0.0 0.00 0.02 0.02 88 1004.8
20260506210547 61 317 0.0 0.0 0.00 0.02 0.02 88 1004.8
20260506210048 61 244 0.0 0.0 0.00 0.02 0.02 88 1004.8
20260506205547 61 262 0.0 0.0 0.00 0.02 0.02 88 1004.9
20260506205047 61 244 0.0 1.0 0.00 0.02 0.02 88 1005.0
20260506204548 61 355 0.0 1.0 0.00 0.02 0.02 88 1005.0
20260506204047 61 279 0.0 0.0 0.01 0.02 0.02 88 1005.0
20260506203547 61 5 0.0 0.0 0.01 0.02 0.02 88 1005.1
20260506203047 61 253 0.0 0.0 0.01 0.02 0.02 87 1005.1
20260506202547 61 323 0.0 0.0 0.01 0.02 0.02 87 1005.1
20260506202046 61 220 0.0 0.0 0.02 0.02 0.02 86 1005.1
20260506201546 61 264 0.0 0.0 0.02 0.02 0.02 86 1005.1
20260506201045 61 275 0.0 1.0 0.02 0.02 0.02 86 1005.1
20260506200545 62 9 0.0 1.0 0.02 0.02 0.02 85 1005.0
20260506200045 62 281 0.0 0.0 0.02 0.02 0.02 85 1005.0
20260506195545 62 258 0.0 0.0 0.02 0.02 0.02 86 1004.9
20260506195047 62 253 0.0 0.0 0.02 0.02 0.02 85 1005.0
20260506194547 63 263 0.0 0.0 0.02 0.02 0.02 84 1004.9
20260506194043 63 255 0.0 0.0 0.01 0.01 0.01 82 1004.9
20260506193542 63 313 0.0 0.0 0.01 0.01 0.01 82 1005.1
20260506193043 64 26 0.0 0.0 0.01 0.01 0.01 81 1005.3
20260506192542 64 313 0.0 6.0 0.01 0.01 0.01 80 1005.3
20260506192042 64 327 0.0 6.0 0.00 0.00 0.00 78 1005.2
20260506191543 65 252 0.0 0.0 0.00 0.00 0.00 78 1005.3
20260506191042 66 311 0.0 0.0 0.00 0.00 0.00 77 1005.1
20260506190543 66 281 0.0 0.0 0.00 0.00 0.00 75 1005.1
20260506190043 67 28 0.0 0.0 0.00 0.00 0.00 73 1005.2
20260506185541 67 296 0.0 0.0 0.00 0.00 0.00 70 1005.2
20260506185041 68 323 0.0 0.0 0.00 0.00 0.00 68 1005.1
20260506184549 68 15 0.0 0.0 0.00 0.00 0.00 67 1005.2
20260506184040 68 223 0.0 0.0 0.00 0.00 0.00 66 1005.1
20260506183540 69 275 0.0 1.0 0.00 0.00 0.00 66 1005.3
20260506183052 69 330 0.0 1.0 0.00 0.00 0.00 66 1005.3
20260506182539 70 326 0.0 4.0 0.00 0.00 0.00 64 1005.3
20260506182038 70 325 0.0 4.0 0.00 0.00 0.00 62 1005.4
20260506181608 70 244 0.0 0.0 0.00 0.00 0.00 61 1005.3
20260506181038 70 117 0.0 0.0 0.00 0.00 0.00 60 1005.4
20260506180538 71 242 0.0 0.0 0.00 0.00 0.00 59 1005.3
20260506180037 71 12 0.0 0.0 0.00 0.00 0.00 59 1005.5
20260506175538 71 261 0.0 1.0 0.00 0.00 0.00 58 1005.5
20260506175039 71 250 0.0 8.0 0.00 0.00 0.00 57 1005.5
20260506174535 72 349 1.0 7.0 0.00 0.00 0.00 56 1005.6
20260506174035 72 333 0.0 0.0 0.00 0.00 0.00 57 1005.6
20260506173535 72 295 0.0 1.0 0.00 0.00 0.00 56 1005.7
20260506173053 72 316 0.0 1.0 0.00 0.00 0.00 56 1005.7
20260506172536 72 320 0.0 0.0 0.00 0.00 0.00 56 1005.7
20260506172035 72 261 0.0 0.0 0.00 0.00 0.00 55 1005.7
20260506171533 73 260 0.0 0.0 0.00 0.00 0.00 55 1005.8
20260506171033 73 276 0.0 1.0 0.00 0.00 0.00 55 1005.8
20260506170533 74 271 0.0 1.0 0.00 0.00 0.00 56 1005.5
20260506170030 73 313 0.0 0.0 0.00 0.00 0.00 58 1005.5
20260506165532 72 259 0.0 0.0 0.00 0.00 0.00 58 1005.7
20260506165033 72 117 0.0 0.0 0.00 0.00 0.00 58 1005.8
20260506164535 72 256 0.0 0.0 0.00 0.00 0.00 58 1006.0
20260506164028 72 319 0.0 0.0 0.00 0.00 0.00 57 1006.1
20260506163527 72 247 0.0 0.0 0.00 0.00 0.00 57 1006.1
20260506163027 72 273 0.0 0.0 0.00 0.00 0.00 58 1006.1
20260506162526 72 276 0.0 0.0 0.00 0.00 0.00 57 1006.2
20260506162026 72 272 0.0 5.0 0.00 0.00 0.00 58 1006.1
20260506161525 72 267 0.0 0.0 0.00 0.00 0.00 59 1006.3
20260506161023 72 238 0.0 0.0 0.00 0.00 0.00 61 1006.5
20260506160523 72 188 0.0 0.0 0.00 0.00 0.00 61 1006.4
20260506160024 72 196 0.0 0.0 0.00 0.00 0.00 60 1006.5
20260506155521 71 219 0.0 0.0 0.00 0.00 0.00 60 1006.7
20260506155021 71 247 0.0 0.0 0.00 0.00 0.00 61 1006.7
20260506154520 71 251 0.0 0.0 0.00 0.00 0.00 60 1006.7
20260506154021 71 250 0.0 0.0 0.00 0.00 0.00 60 1007.0
20260506153523 72 42 0.0 0.0 0.00 0.00 0.00 59 1007.0
20260506153022 72 254 0.0 1.0 0.00 0.00 0.00 59 1007.1
20260506152518 72 310 0.0 1.0 0.00 0.00 0.00 59 1007.2
20260506152020 72 277 0.0 0.0 0.00 0.00 0.00 61 1007.1
20260506151518 72 327 0.0 0.0 0.00 0.00 0.00 60 1007.2
20260506151017 72 282 0.0 0.0 0.00 0.00 0.00 59 1007.2
20260506150516 72 320 0.0 0.0 0.00 0.00 0.00 60 1007.2
20260506150016 72 249 0.0 0.0 0.00 0.00 0.00 60 1007.3
20260506145515 71 336 0.0 0.0 0.00 0.00 0.00 61 1007.2
20260506145013 71 244 0.0 0.0 0.00 0.00 0.00 62 1007.4
20260506144516 71 259 0.0 1.0 0.00 0.00 0.00 62 1007.3
20260506144015 71 273 0.0 0.0 0.00 0.00 0.00 63 1007.2
20260506143512 70 182 0.0 0.0 0.00 0.00 0.00 63 1007.3
20260506143014 70 320 0.0 0.0 0.00 0.00 0.00 63 1007.1
20260506142511 70 196 0.0 0.0 0.00 0.00 0.00 64 1007.1
20260506142009 70 249 0.0 0.0 0.00 0.00 0.00 66 1007.2
20260506141507 69 264 0.0 0.0 0.00 0.00 0.00 67 1007.1
20260506141009 69 336 0.0 0.0 0.00 0.00 0.00 68 1007.2
20260506140508 68 169 0.0 0.0 0.00 0.00 0.00 69 1007.2
20260506140005 68 269 0.0 0.0 0.00 0.00 0.00 69 1007.3
20260506135502 67 345 0.0 0.0 0.00 0.00 0.00 71 1007.3
20260506135003 67 284 0.0 1.0 0.00 0.00 0.00 71 1007.3
20260506134500 67 355 0.0 1.0 0.00 0.00 0.00 72 1007.2
20260506134102 67 200 0.0 1.0 0.00 0.00 0.00 72 1007.2
20260506133559 66 286 0.0 0.0 0.00 0.00 0.00 73 1007.5
20260506133058 66 243 0.0 0.0 0.00 0.00 0.00 73 1007.8
20260506132556 66 157 0.0 0.0 0.00 0.00 0.00 74 1007.9
20260506132056 66 246 0.0 0.0 0.00 0.00 0.00 73 1008.0
20260506131556 65 233 0.0 0.0 0.00 0.00 0.00 73 1008.0
20260506131055 65 250 0.0 0.0 0.00 0.00 0.00 74 1008.0
20260506130555 65 257 0.0 0.0 0.00 0.00 0.00 75 1007.9
20260506130056 65 244 0.0 0.0 0.00 0.00 0.00 76 1007.8
20260506125553 65 271 0.0 0.0 0.00 0.00 0.00 75 1007.8
20260506125051 64 200 0.0 0.0 0.00 0.00 0.00 77 1007.7
20260506124551 64 330 0.0 0.0 0.00 0.00 0.00 77 1007.9
20260506124051 63 333 0.0 0.0 0.00 0.00 0.00 78 1007.9
20260506123550 63 348 0.0 0.0 0.00 0.00 0.00 79 1008.0
20260506123050 63 223 0.0 0.0 0.00 0.00 0.00 79 1008.0
20260506122550 63 254 0.0 0.0 0.00 0.00 0.00 80 1008.1
20260506122050 62 259 0.0 0.0 0.00 0.00 0.00 80 1008.0
20260506121549 62 246 0.0 0.0 0.00 0.00 0.00 81 1008.0
20260506121048 62 236 0.0 0.0 0.00 0.00 0.00 81 1007.9
20260506120548 61 287 0.0 0.0 0.00 0.00 0.00 82 1008.0
20260506120048 61 229 0.0 0.0 0.00 0.00 0.00 82 1008.0
20260506115548 61 282 0.0 0.0 0.00 0.00 0.00 82 1008.3
20260506115047 61 229 0.0 0.0 0.00 0.00 0.00 82 1008.3
20260506114546 61 221 0.0 0.0 0.00 0.00 0.00 82 1008.3
20260506114045 61 322 0.0 0.0 0.00 0.00 0.00 82 1008.2
20260506113545 61 263 0.0 1.0 0.00 0.00 0.00 82 1008.4
20260506113045 60 304 0.0 1.0 0.00 0.00 0.00 82 1008.6
20260506112544 60 247 0.0 0.0 0.00 0.00 0.00 82 1008.5
20260506112042 60 272 0.0 0.0 0.00 0.00 0.00 83 1008.5
20260506111542 60 300 0.0 0.0 0.00 0.00 0.00 82 1008.4
20260506111041 60 257 0.0 0.0 0.00 0.00 0.00 82 1008.4
20260506110543 60 251 0.0 0.0 0.00 0.00 0.00 83 1008.3
20260506110041 60 265 0.0 0.0 0.00 0.00 0.00 83 1008.3
20260506105544 60 279 0.0 0.0 0.00 0.00 0.00 83 1008.3
20260506105044 60 269 0.0 0.0 0.00 0.00 0.00 83 1008.3
20260506104540 60 226 0.0 0.0 0.00 0.00 0.00 83 1008.2
20260506104040 60 253 0.0 0.0 0.00 0.00 0.00 83 1008.3
20260506103540 60 259 0.0 0.0 0.00 0.00 0.00 83 1008.4
20260506103051 60 267 0.0 0.0 0.00 0.00 0.00 83 1008.4
20260506102540 60 266 0.0 0.0 0.00 0.00 0.00 83 1008.5
20260506102040 60 315 0.0 0.0 0.00 0.00 0.00 83 1008.5
20260506101539 60 152 0.0 0.0 0.00 0.00 0.00 82 1008.5
20260506101038 60 267 0.0 0.0 0.00 0.00 0.00 82 1008.4
20260506100541 60 45 0.0 0.0 0.00 0.00 0.00 82 1008.3
20260506100039 60 302 0.0 0.0 0.00 0.00 0.00 82 1008.3
20260506095538 60 328 0.0 0.0 0.00 0.00 0.00 82 1008.2
20260506095037 60 230 0.0 0.0 0.00 0.00 0.00 82 1008.2
20260506094538 60 257 0.0 0.0 0.00 0.00 0.00 81 1008.0
20260506094038 60 240 0.0 0.0 0.00 0.00 0.00 81 1008.1
20260506093538 60 355 0.0 0.0 0.00 0.00 0.00 81 1008.1
20260506093035 60 258 0.0 0.0 0.00 0.00 0.00 81 1008.2
20260506092536 60 281 0.0 0.0 0.00 0.00 0.00 81 1008.2
20260506092034 60 217 0.0 0.0 0.00 0.00 0.00 81 1008.1
20260506091535 60 229 0.0 0.0 0.00 0.00 0.00 80 1008.2
20260506091036 60 260 0.0 0.0 0.00 0.00 0.00 80 1008.2
20260506090534 60 254 0.0 0.0 0.00 0.00 0.00 80 1008.1
20260506090034 60 245 0.0 0.0 0.00 0.00 0.00 80 1008.2
20260506085532 60 230 0.0 0.0 0.00 0.00 0.00 80 1008.2
20260506085032 60 207 0.0 0.0 0.00 0.00 0.00 80 1008.3
20260506084532 60 231 0.0 0.0 0.00 0.00 0.00 80 1008.4
20260506084032 61 271 0.0 0.0 0.00 0.00 0.00 79 1008.4
20260506083533 61 231 0.0 0.0 0.00 0.00 0.00 79 1008.4
20260506083030 61 131 0.0 0.0 0.00 0.00 0.00 79 1008.4
20260506082529 61 240 0.0 0.0 0.00 0.00 0.00 79 1008.4
20260506082029 61 259 0.0 0.0 0.00 0.00 0.00 79 1008.3
20260506081530 61 221 0.0 0.0 0.00 0.00 0.00 78 1008.4
20260506081031 61 251 0.0 0.0 0.00 0.00 0.00 78 1008.4
20260506080528 61 332 0.0 0.0 0.00 0.00 0.00 78 1008.4
20260506073528 62 311 0.0 0.0 0.00 0.00 0.00 76 1008.3
20260506073024 62 242 0.0 1.0 0.00 0.00 0.00 76 1008.3
20260506072523 62 268 0.0 0.0 0.00 0.00 0.00 76 1008.3
20260506072024 62 271 0.0 0.0 0.00 0.00 0.00 76 1008.3
20260506071522 62 257 0.0 0.0 0.00 0.00 0.00 75 1008.2
20260506071021 62 205 0.0 0.0 0.00 0.00 0.00 75 1008.2
20260506070521 62 234 0.0 0.0 0.00 0.00 0.00 75 1008.0
20260506062515 63 275 0.0 0.0 0.00 0.00 0.00 72 1007.8
20260506062015 63 237 0.0 0.0 0.00 0.00 0.00 72 1007.8
20260506061515 64 278 0.0 0.0 0.00 0.00 0.00 71 1007.9
20260506061013 64 224 0.0 0.0 0.00 0.00 0.00 71 1007.8
20260506060513 64 276 0.0 1.0 0.00 0.00 0.00 70 1007.8
20260506051007 64 259 0.0 0.0 0.00 0.00 0.00 67 1008.2
20260506050507 64 10 0.0 0.0 0.00 0.00 0.00 67 1008.3
20260506045007 64 44 0.0 1.0 0.00 0.00 0.00 66 1008.3
20260506044506 64 254 0.0 1.0 0.00 0.00 0.00 66 1008.4
20260506044005 64 278 0.0 0.0 0.00 0.00 0.00 66 1008.4
20260506043504 64 351 0.0 0.0 0.00 0.00 0.00 66 1008.3
20260506043005 64 275 0.0 0.0 0.00 0.00 0.00 66 1008.4
20260506042504 64 235 0.0 0.0 0.00 0.00 0.00 66 1008.3
20260506042003 64 265 0.0 0.0 0.00 0.00 0.00 65 1008.4
20260506041504 64 355 0.0 0.0 0.00 0.00 0.00 65 1008.4
20260506041002 64 259 0.0 0.0 0.00 0.00 0.00 65 1008.4